Tiempo cada hora Czyzeminek

Hoy, 22 Junio, Martes

Tiempo Temperatura Precipitaciones Viento Presión Humedad
00:00 +21°C° 0 mm 2 mps 739 mmHg 86%
01:00 +20°C° 0 mm 2 mps 739 mmHg 87%
02:00 +20°C° 0 mm 2 mps 739 mmHg 88%
03:00 +20°C° 0 mm 2 mps 739 mmHg 90%
04:00 +20°C° 0 mm 2 mps 739 mmHg 91%
05:00 +21°C° 0 mm 2 mps 739 mmHg 84%
06:00 +24°C° 0 mm 1 mps 739 mmHg 78%
07:00 +26°C° 0 mm 1 mps 740 mmHg 71%
08:00 +27°C° 0 mm 1 mps 740 mmHg 66%
09:00 +29°C° 0 mm 1 mps 740 mmHg 60%
10:00 +30°C° 0 mm 1 mps 740 mmHg 54%
11:00 +31°C° 0 mm 1 mps 740 mmHg 52%
12:00 +31°C° 0 mm 1 mps 740 mmHg 49%
13:00 +32°C° 0 mm 1 mps 740 mmHg 47%
14:00 +32°C° 0 mm 2 mps 740 mmHg 48%
15:00 +32°C° 0 mm 2 mps 740 mmHg 49%
16:00 +32°C° 0 mm 2 mps 740 mmHg 49%
17:00 +29°C° 2.1 mm 3 mps 741 mmHg 63%
18:00 +26°C° 2.1 mm 3 mps 741 mmHg 77%
19:00 +22°C° 2.1 mm 4 mps 741 mmHg 90%
20:00 +21°C° 2.5 mm 3 mps 742 mmHg 92%
21:00 +21°C° 2.5 mm 3 mps 742 mmHg 94%
22:00 +20°C° 2.5 mm 2 mps 742 mmHg 95%
23:00 +20°C° 0.2 mm 2 mps 742 mmHg 96%

Mañana, 23 Junio, Miércoles

Tiempo Temperatura Precipitaciones Viento Presión Humedad
00:00 +20°C° 0.2 mm 2 mps 743 mmHg 96%
01:00 +20°C° 0.2 mm 2 mps 743 mmHg 96%
02:00 +20°C° 0.1 mm 2 mps 743 mmHg 96%
03:00 +19°C° 0.1 mm 2 mps 743 mmHg 96%
04:00 +19°C° 0.1 mm 2 mps 743 mmHg 96%
05:00 +19°C° 0.1 mm 3 mps 744 mmHg 95%
06:00 +20°C° 0.1 mm 3 mps 744 mmHg 93%
07:00 +20°C° 0.1 mm 3 mps 745 mmHg 92%
08:00 +20°C° 0.8 mm 3 mps 745 mmHg 91%
09:00 +20°C° 0.8 mm 3 mps 745 mmHg 90%
10:00 +21°C° 0.8 mm 3 mps 746 mmHg 89%
11:00 +21°C° 0.6 mm 3 mps 746 mmHg 88%
12:00 +21°C° 0.6 mm 3 mps 746 mmHg 87%
13:00 +21°C° 0.6 mm 3 mps 746 mmHg 86%
14:00 +22°C° 0.2 mm 3 mps 746 mmHg 85%
15:00 +23°C° 0.2 mm 2 mps 746 mmHg 84%
16:00 +23°C° 0.2 mm 2 mps 746 mmHg 84%
17:00 +23°C° 0.1 mm 2 mps 746 mmHg 85%
18:00 +21°C° 0.1 mm 2 mps 746 mmHg 87%
19:00 +21°C° 0.1 mm 2 mps 746 mmHg 89%
20:00 +22°C° 0 mm 1 mps 746 mmHg 90%
21:00 +21°C° 0 mm 1 mps 746 mmHg 91%
22:00 +21°C° 0 mm 1 mps 746 mmHg 92%
23:00 +20°C° 0 mm 1 mps 746 mmHg 92%

Pasado mañana, 24 Junio, Jueves

Tiempo Temperatura Precipitaciones Viento Presión Humedad
00:00 +20°C° 0 mm 1 mps 746 mmHg 92%
01:00 +20°C° 0 mm 1 mps 745 mmHg 93%
02:00 +20°C° 0 mm 1 mps 745 mmHg 94%
03:00 +18°C° 0 mm 2 mps 745 mmHg 94%
04:00 +18°C° 0 mm 2 mps 745 mmHg 95%
05:00 +19°C° 0.1 mm 2 mps 745 mmHg 92%
06:00 +21°C° 0.1 mm 1 mps 745 mmHg 89%
07:00 +22°C° 0.1 mm 1 mps 745 mmHg 85%
08:00 +23°C° 0.1 mm 1 mps 745 mmHg 83%
09:00 +24°C° 0.1 mm 1 mps 745 mmHg 81%
10:00 +24°C° 0.1 mm 1 mps 745 mmHg 78%
11:00 +25°C° 0.1 mm 1 mps 745 mmHg 75%
12:00 +26°C° 0.1 mm 1 mps 745 mmHg 71%
13:00 +27°C° 0.1 mm 1 mps 745 mmHg 68%
14:00 +27°C° 0.1 mm 1 mps 745 mmHg 67%
15:00 +28°C° 0.1 mm 1 mps 744 mmHg 66%
16:00 +28°C° 0.1 mm 1 mps 744 mmHg 66%
17:00 +27°C° 0.2 mm 2 mps 744 mmHg 71%
18:00 +26°C° 0.2 mm 2 mps 743 mmHg 75%
19:00 +25°C° 0.2 mm 2 mps 743 mmHg 80%
20:00 +24°C° 0.5 mm 3 mps 743 mmHg 85%
21:00 +22°C° 0.5 mm 3 mps 742 mmHg 89%
22:00 +21°C° 0.5 mm 4 mps 742 mmHg 93%
23:00 +21°C° 2.2 mm 4 mps 741 mmHg 94%

25 Junio, Viernes

Tiempo Temperatura Precipitaciones Viento Presión Humedad
00:00 +21°C° 2.2 mm 5 mps 740 mmHg 95%
01:00 +21°C° 2.2 mm 5 mps 739 mmHg 96%
02:00 +20°C° 8.5 mm 4 mps 739 mmHg 94%
03:00 +19°C° 8.5 mm 4 mps 739 mmHg 93%
04:00 +18°C° 8.5 mm 3 mps 739 mmHg 92%
05:00 +19°C° 0 mm 4 mps 740 mmHg 91%
06:00 +19°C° 0 mm 5 mps 740 mmHg 90%
07:00 +20°C° 0 mm 6 mps 740 mmHg 88%
08:00 +19°C° 0 mm 6 mps 741 mmHg 89%
09:00 +19°C° 0 mm 6 mps 741 mmHg 90%
10:00 +18°C° 0 mm 7 mps 741 mmHg 90%
11:00 +17°C° 0 mm 6 mps 742 mmHg 90%
12:00 +17°C° 0 mm 6 mps 742 mmHg 89%
13:00 +16°C° 0 mm 6 mps 743 mmHg 89%
14:00 +16°C° 0 mm 6 mps 743 mmHg 89%
15:00 +16°C° 0 mm 6 mps 744 mmHg 89%
16:00 +16°C° 0 mm 6 mps 744 mmHg 89%
17:00 +16°C° 0 mm 5 mps 744 mmHg 88%
18:00 +15°C° 0 mm 5 mps 744 mmHg 87%
19:00 +15°C° 0 mm 5 mps 744 mmHg 87%
20:00 +15°C° 0 mm 4 mps 744 mmHg 89%
21:00 +14°C° 0 mm 4 mps 745 mmHg 91%
22:00 +14°C° 0 mm 3 mps 745 mmHg 94%
23:00 +13°C° 0 mm 3 mps 745 mmHg 94%

26 Junio, Sábado

Tiempo Temperatura Precipitaciones Viento Presión Humedad
00:00 +13°C° 0 mm 3 mps 745 mmHg 95%
01:00 +13°C° 0 mm 3 mps 745 mmHg 95%
02:00 +13°C° 0 mm 3 mps 745 mmHg 95%
03:00 +12°C° 0 mm 3 mps 745 mmHg 95%
04:00 +12°C° 0 mm 3 mps 745 mmHg 95%
05:00 +14°C° 0 mm 3 mps 745 mmHg 89%
06:00 +16°C° 0 mm 3 mps 746 mmHg 82%
07:00 +18°C° 0 mm 4 mps 746 mmHg 76%
08:00 +19°C° 0 mm 4 mps 746 mmHg 70%
09:00 +20°C° 0 mm 4 mps 746 mmHg 64%
10:00 +22°C° 0 mm 4 mps 746 mmHg 58%
11:00 +22°C° 0 mm 4 mps 746 mmHg 55%
12:00 +23°C° 0 mm 4 mps 746 mmHg 52%
13:00 +23°C° 0 mm 4 mps 746 mmHg 49%
14:00 +23°C° 0 mm 4 mps 746 mmHg 49%
15:00 +25°C° 0 mm 4 mps 746 mmHg 49%
16:00 +25°C° 0 mm 4 mps 746 mmHg 49%
17:00 +22°C° 0 mm 3 mps 746 mmHg 56%
18:00 +21°C° 0 mm 3 mps 746 mmHg 63%
19:00 +20°C° 0 mm 2 mps 746 mmHg 71%
20:00 +19°C° 0 mm 2 mps 746 mmHg 74%
21:00 +19°C° 0 mm 1 mps 746 mmHg 77%
22:00 +18°C° 0 mm 1 mps 746 mmHg 81%
23:00 +16°C° 0 mm 1 mps 746 mmHg 82%

27 Junio, Domingo

Tiempo Temperatura Precipitaciones Viento Presión Humedad
00:00 +16°C° 0 mm 1 mps 746 mmHg 83%
01:00 +16°C° 0 mm 1 mps 746 mmHg 84%
02:00 +15°C° 0 mm 1 mps 746 mmHg 84%
03:00 +15°C° 0 mm 1 mps 746 mmHg 84%
04:00 +15°C° 0 mm 1 mps 746 mmHg 84%
05:00 +18°C° 0 mm 1 mps 746 mmHg 79%
06:00 +20°C° 0 mm 1 mps 746 mmHg 73%
07:00 +21°C° 0 mm 1 mps 747 mmHg 67%
08:00 +23°C° 0 mm 1 mps 747 mmHg 62%
09:00 +24°C° 0 mm 1 mps 747 mmHg 57%
10:00 +25°C° 0 mm 1 mps 747 mmHg 51%
11:00 +26°C° 0 mm 1 mps 747 mmHg 49%
12:00 +26°C° 0 mm 1 mps 746 mmHg 47%
13:00 +27°C° 0 mm 2 mps 746 mmHg 45%
14:00 +27°C° 0 mm 2 mps 746 mmHg 45%
15:00 +27°C° 0 mm 2 mps 746 mmHg 44%
16:00 +28°C° 0 mm 2 mps 746 mmHg 44%
17:00 +26°C° 0 mm 2 mps 746 mmHg 51%
18:00 +25°C° 0 mm 2 mps 746 mmHg 58%
19:00 +24°C° 0 mm 2 mps 746 mmHg 64%
20:00 +23°C° 0 mm 2 mps 746 mmHg 65%
21:00 +21°C° 0 mm 3 mps 746 mmHg 66%
22:00 +19°C° 0 mm 3 mps 746 mmHg 67%
23:00 +19°C° 0 mm 3 mps 746 mmHg 69%
Mostrar más

Necesitamos Su Consentimiento

Meteoprog y nuestros Proveedores de Servicios pueden almacenar y acceder a sus datos personales como cookies, identificadores de dispositivo u otras tecnologías similares de su dispositivo y procesar dichos datos para personalizar contenido y anuncios, además de ofrecer funciones de redes sociales y analizar el tráfico.

  • Almacenar y/o acceder a información en su dispositivo

    Se puede almacenar o acceder a cookies, identificadores de dispositivo u otra información de su dispositivo para los fines anteriormente indicados.

  • Anuncios y contenido personalizados, medición de anuncios y contenido, percepciones del público, y desarrollo de productos

    Los anuncios y el contenido pueden personalizarse en base a su perfil. Se pueden añadir más datos para personalizar mejor los anuncios y contenidos. Se puede medir el rendimiento de los anuncios y contenidos. Se puede obtener la percepción sobre el público que ha visto los anuncios y contenidos. Dichos datos pueden usarse para desarrollar o mejorar la experiencia del usuario, sistemas y software.

Al hacer clic en ‘Estoy De Acuerdo’ usted permitirá el uso de las cookies, identificadores de dispositivo, balizas web u otras tecnologías similares indicadas. Su configuración puede cambiarse desde el navegador de su dispositivo.

Para ciertos fines, los intereses legítimos pueden ser considerados por encima del consentimiento. Puede leer más sobre ello en nuestra Política de Privacidad y Cookies.